Regional Weather Roundup
Issued by NWS Grand Forks, ND

Home | Current Version | Previous Version | Text Only | Print | Product List | Glossary Off
Versions: 1 2 3 4 5 6 7 8 9 10 11 12 13 14 15 16 17 18 19 20 21 22 23 24 25 26 27 28 29 30 31 32 33 34 35 36 37 38 39 40 41 42 43 44 45 46 47 48 49 50

000
ASUS43 KFGF 250210
RWRFGF
PRAIRIE TO PINES  WEATHER ROUNDUP
NATIONAL WEATHER SERVICE EASTERN NORTH DAKOTA/GRAND FORKS ND
900 PM CDT WED AUG 24 2016

 **SATELLITE DATA USED TO AUGMENT SKY COVER AT AUTOMATED STATIONS**
 *****  WEATHER ACROSS EASTERN NORTH DAKOTA  *****

CITY           SKY/WX    TMP DP  RH WIND       PRES   REMARKS
GRAND FORKS    CLEAR     63  52  67 W8        29.90R
GRAND FRKS AFB NOT AVBL
GRAND FRKS NWS   N/A     63 N/A N/A W6          N/A
DEVILS LAKE    PTCLDY    64  51  62 W17       29.93R
FARGO          CLEAR     65  52  62 SW9       29.94S
WAHPETON ARPT  CLEAR     61  54  77 W3        29.97S
$$

 ***** WEATHER ACROSS CENTRAL AND WESTERN NORTH DAKOTA  *****

CITY           SKY/WX    TMP DP  RH WIND       PRES   REMARKS
BISMARCK       CLEAR     64  46  52 W15G24    30.05R
MINOT          CLOUDY    61  53  75 W18G25    29.98R
JAMESTOWN      CLEAR     62  52  69 W8        29.98R
MINOT AFB      CLOUDY    57  54  91 W18G25    29.97R
GARRISON         N/A     57  53  86 W13       30.03R
WILLISTON      CLOUDY    57  47  69 NW14      30.11R
DICKINSON      MOCLDY    57  43  59 NW17      30.11R
HETTINGER      CLEAR     59  42  53 NW15      30.16R
$$

 *****  OTHER AIRPORT OBSERVATIONS IN OUR AREA  *****

CITY           SKY/WX    TMP DP  RH WIND       PRES   REMARKS
WALHALLA       NOT AVBL
GRAFTON AIRPOR FAIR      61  54  77 SW7       29.89S
VALLEY CITY AR FAIR      59  55  88 W10       29.99S
CANDO          NOT AVBL
CAVALIER APRT  MOCLDY    64  54  68 SW6       29.86S
GWINNER        FAIR      64  54  68 W6        30.00R
SHEYENNE NWR     N/A     63  53  70 W2        29.95S
ROLLA          MOCLDY    57  55  94 W7        29.92R
 ***** THE ABOVE OBSERVATIONS ARE NON NWS ARE NOT QUALITY
       CONTROLLED AND MAY MIS-REPORT RAIN FOR SNOW...
$$

  *****  WEATHER ACROSS NORTHERN MINNESOTA  *****

CITY           SKY/WX    TMP DP  RH WIND       PRES   REMARKS
FLAG ISLAND    CLOUDY    66  52  59 W5        29.84R
WARROAD        PTCLDY    63  55  77 SW6       29.88R
ROSEAU         CLEAR     63  55  77 SW6       29.87R
HALLOCK        PTCLDY    63  54  72 SW7       29.86S
THF RVR FALLS  PTCLDY    62  52  69 SW7       29.92R
BAUDETTE       CLOUDY    61  53  75 SW6       29.88R
WASKISH        MOCLDY    68  55  64 SW10G16   29.90R
CROOKSTON      CLEAR     63  54  72 W7        29.92R
STEPHEN NDAWN    N/A     63  54  72 SW5         N/A
GREENBUSH NDAW   N/A     59  54  82 SW3         N/A
$$
  *****  WEATHER ACROSS CENTRAL AND WEST MINNESOTA  *****

CITY           SKY/WX    TMP DP  RH WIND       PRES   REMARKS
FOSSTON        CLEAR     57  52  82 SW7       29.94R
BEMIDJI        CLEAR     63  54  72 SW5       29.93S
PARK RAPIDS    CLEAR     60  53  77 W7        29.96R
ELBOW LAKE     FAIR      64  56  78 CALM      29.99R
WADENA         CLEAR     61  54  77 CALM      29.97R
DETROIT LAKES  CLEAR     64  54  68 W5        29.98R
MOORHEAD       CLEAR     63  54  72 W6        29.96R
FERGUS FALLS   CLEAR     63  55  77 W3        29.99R
MORRIS MN      CLOUDY    64  57  77 SW5       29.99S
STAPLES        PTCLDY    63  54  72 CALM      29.97S
$$
  *****  WEATHER ELSEWHERE ACROSS MINNESOTA  *****

CITY           SKY/WX    TMP DP  RH WIND       PRES   REMARKS
DULUTH         CLOUDY    67  56  67 W9        29.92R
INTRNTL FALLS  PTCLDY    63  52  67 W6        29.87R
ELY            CLEAR     64  54  68 W8        29.89R
CLOQUET        CLOUDY    66  54  63 W7        29.93S
WHEATON        PTCLDY    66  59  77 SW5       30.00R
BRAINERD       CLOUDY    68  55  63 CALM      29.97R
HIBBING        CLEAR     63  53  70 W6        29.93R
ALEXANDRIA     CLOUDY    64  56  75 SW5       30.01R
SAINT CLOUD    CLOUDY    66  59  78 NW3       29.98R
MINNEAPOLIS    CLOUDY    71  57  61 W6        29.98R
$$

  *****  WEATHER ACROSS SOUTH DAKOTA  *****

CITY           SKY/WX    TMP DP  RH WIND       PRES   REMARKS
SIOUX FALLS    CLOUDY    69  59  70 SW3       30.06R
BROOKINGS      PTCLDY    65  58  78 SW7       30.05S
WATERTOWN      PTCLDY    63  56  78 SW5       30.02R
HURON          CLOUDY    68  55  63 SW9       30.04R
SISSETON         N/A     63  57  81 W3        29.97S
ABERDEEN       CLEAR     62  54  74 SW5       30.00R
MITCHELL       CLOUDY    69  56  62 W8        30.06S
PIERRE         PTCLDY    65  48  54 NW6       30.06R
MOBRIDGE       PTCLDY    70  45  40 NW9       30.04R
RAPID CITY     PTCLDY    65  46  50 N17       30.19R
$$

  *****  SOME WEATHER IN NEARBY STATES *****

CITY           SKY/WX    TMP DP  RH WIND       PRES   REMARKS
GLASGOW MT     CLOUDY    56  46  69 NW12      30.23R
GREAT FALLS MT CLOUDY    60  38  43 S6        30.32F
CHEYENNE WY    CLOUDY    58  48  69 S10       30.25S
SCOTTSBLUFF NE PTCLDY    64  46  52 E7        30.18R
OMAHA NE       CLOUDY    69  64  84 N7        30.04R
DES MOINES IA  CLOUDY    74  69  85 W6        30.02R
DAVENPORT IA   CLOUDY    76  71  85 SW3       29.96S
CHICAGO IL     MOCLDY    78  72  81 SW3       29.96S
EAU CLAIRE WI  CLOUDY    69  59  70 W7        29.95R
LA CROSSE WI   CLOUDY    74  32  21 W6        29.96R
$$

  *****  SOME NATIONAL WEATHER *****

CITY           SKY/WX    TMP DP  RH WIND       PRES   REMARKS
LA GUARDIA NY  PTCLDY    78  65  63 S10       30.16F
RALEIGH NC     PTCLDY    76  63  64 SE7       30.22S
ATLANTA GA     MOCLDY    78  72  81 E5        30.21R
NEW ORLEANS LA CLOUDY    84  78  82 CALM      30.10R HX  95
OKLAHOMA CITY  PTCLDY    84  67  56 S12       30.00R
ALBUQUERQUE NM PTCLDY    73  47  39 N9        30.17R
SALT LAKE CITY PTCLDY    78  19  11 N7        30.08S
LOS ANGELES CA CLEAR     68  61  78 W9        29.93S
BOISE ID       CLEAR     78  29  16 W10       30.05S
SEATTLE WA     PTCLDY    82  53  36 NW8       30.14F
$$

*** WEATHER ACROSS MANITOBA...SASKATCHEWAN AND ONTARIO ***
                ***ONTARIO***

CITY           SKY/WX    TMP DP  RH WIND       PRES   REMARKS
GERALDTON      MOCLDY    63  63 100 W2        29.77S
THUNDER BAY    MOCLDY    68  64  88 VRB2      29.79R
SIOUX LOOKOUT  PTCLDY    57  57 100 CALM      29.79R
TORONTO        MOCLDY    79  61  53 S7        29.98F
BIG TROUT LK   MOCLDY    52  48  87 E3        29.91S
PICKLE LAKE    LGT RAIN  54  54 100 NE9G18    29.82R FOG
DRYDEN         PTCLDY    66  55  68 W12       29.81R
KENORA         MOCLDY    66  54  63 W5        29.84R
$$
                *** MANITOBA***

CITY           SKY/WX    TMP DP  RH WIND       PRES   REMARKS
BRANDON        PTCLDY    57  54  88 NW9       29.87R
DAUPHIN        LGT RAIN  57  55  94 N16G24    29.91R FOG
ISLAND LAKE    MOCLDY    59  52  77 N6        29.93S
PILOT MOUND      N/A     59  54  82 W6          N/A
THE PAS        CLOUDY    63  46  55 NE2       30.01R
THOMPSON       MOCLDY    55  43  62 CALM      29.97S
WINNIPEG       PTCLDY    64  54  68 SW7       29.80S
LYNN LAKE      PTCLDY    61  54  77 MISG      30.00F
CHURCHILL      MOCLDY    54  45  71 S6        29.92S
GILLAM         PTCLDY    55  41  58 CALM      29.93F
$$
                ***SASKATCHEWAN***

CITY           SKY/WX    TMP DP  RH WIND       PRES   REMARKS
ESTEVAN        CLOUDY    54  48  82 NW20G28   30.05R
KINDERSLEY     PTCLDY    61  48  63 NW3       30.20S
LLOYDMINSTER   MOCLDY    64  48  55 CALM      30.17F
PRINCE ALBERT  PTCLDY    63  52  67 N3        30.10R
REGINA         MOCLDY    54  50  87 NW9       30.14R
YORKTON        LGT RAIN  52  50  93 N12       30.05R
N. BATTLEFORD  CLEAR     61  48  63 N2        30.17
LA RONGE       PTCLDY    63  52  67 CALM      30.09S
SASKATOON      MOCLDY    61  52  72 NW7       30.15S
SWIFT CURRENT  MOCLDY    57  50  77 W8        30.21R
$$
NOTE: THESE ARE AUTOMATED STATIONS WITH LIMITED QUALITY CONTROL
      "FAIR" INDICATES FEW OR NO CLOUDS BELOW 12,000 FEET WITH NO
      SIGNIFICANT WEATHER AND/OR OBSTRUCTIONS TO VISIBILITY.
      SKY/WX - SKY CONDITION AND SIGNIFICANT WEATHER.
      TMP - AIR TEMPERATURE.    DP   - DEWPOINT TEMPERATURE.
      RH  - RELATIVE HUMIDITY.  PRES - PRESSURE.
      HX  - HEAT INDEX.         WCI  - WIND CHILL INDEX.
$




USA.gov is the U.S. government's official web portal to all federal, state and local government web resources and services.